Location: Astronomy Club of Akron Observatory
(40.9700°N, 81.5606°W)
Time: 14:34:15
(UTC-04:00)

Cosmos 1441 Rocket - Visible Passes

Search period start: 30 May 2015 00:00
Search period end: 09 June 2015 00:00
Orbit: 503 x 550 km, 81.1° (Epoch: 29 May)

Date Brightness Start Highest point End Pass type
(mag) Time Alt. Az. Time Alt. Az. Time Alt. Az.
30 May 6.3 05:06:03 10° ESE 05:07:39 13° E 05:09:27 10° ENE visible
31 May 6.4 04:54:47 10° ESE 04:56:01 11° E 04:57:28 10° ENE visible
01 Jun 6.5 04:43:41 10° E 04:44:23 11° E 04:45:20 10° ENE visible
06 Jun 3.3 05:17:46 10° SSW 05:21:41 80° W 05:25:41 10° N visible
07 Jun 3.3 05:06:05 10° S 05:10:00 88° W 05:14:01 10° N visible
08 Jun 3.3 04:54:25 10° S 04:58:20 85° E 05:02:21 10° N visible
